Cosmos 1833 Rocket - Orbit

View from above orbital plane
View from above orbital plane
View from above satellite
View from above satellite

Ground track
Ground track

The orbit data is extracted from the following two-line orbital elements,

1 17590U 87027B   13144.16000878 -.00000013  00000-0  17644-4 0  4119
2 17590 071.0048 036.7443 0004004 022.4221 337.7076 14.16586562353819
Epoch (UTC): 24 May 2013 03:50:24
Eccentricity: 0.0004004
inclination: 71.0048°
perigee height: 834 km
apogee height: 840 km
right ascension of ascending node: 36.7443°
argument of perigee: 22.4221°
revolutions per day: 14.16586562
mean anomaly at epoch: 337.7076°
orbit number at epoch: 35381

The dashed part of the orbit path shows where the satellite is in the earth's shadow,  

Developed and maintained by Chris Peat, Heavens-Above GmbH. Please read the updated FAQ before sending e-mail. Imprint. DLR